TimeCDT,TemperatureF,Dew PointF,Humidity,Sea Level PressureIn,VisibilityMPH,Wind Direction,Wind SpeedMPH,Gust SpeedMPH,PrecipitationIn,Events,Conditions,WindDirDegrees,DateUTC
12:53 AM,81.0,63.0,54,29.96,10.0,SE,5.8,-,N/A,,Clear,130,2013-08-10 05:53:00
1:53 AM,84.0,66.9,56,29.97,10.0,SSE,8.1,-,N/A,,Clear,160,2013-08-10 06:53:00
2:53 AM,81.0,66.9,62,29.98,10.0,South,6.9,-,N/A,,Clear,180,2013-08-10 07:53:00
3:53 AM,82.0,71.1,69,29.98,10.0,South,9.2,-,N/A,,Clear,180,2013-08-10 08:53:00
4:53 AM,80.1,71.1,74,29.99,10.0,South,5.8,-,N/A,,Clear,190,2013-08-10 09:53:00
5:53 AM,79.0,71.1,77,29.99,10.0,South,6.9,-,N/A,,Clear,180,2013-08-10 10:53:00
6:53 AM,78.1,71.1,79,30.00,10.0,South,3.5,-,N/A,,Clear,190,2013-08-10 11:53:00
7:53 AM,82.0,72.0,71,30.01,10.0,South,5.8,-,N/A,,Clear,190,2013-08-10 12:53:00
8:53 AM,84.9,71.1,63,30.03,10.0,WSW,8.1,-,N/A,,Clear,240,2013-08-10 13:53:00
9:53 AM,88.0,71.1,57,30.03,10.0,West,5.8,-,N/A,,Clear,260,2013-08-10 14:53:00
10:53 AM,91.9,71.1,50,30.04,10.0,Variable,5.8,-,N/A,,Clear,0,2013-08-10 15:53:00
11:53 AM,95.0,70.0,44,30.04,10.0,WSW,8.1,-,N/A,,Clear,240,2013-08-10 16:53:00
12:53 PM,97.0,66.9,37,30.02,10.0,SW,6.9,-,N/A,,Clear,220,2013-08-10 17:53:00
1:53 PM,98.1,64.9,34,30.00,10.0,SSW,5.8,-,N/A,,Clear,200,2013-08-10 18:53:00
2:53 PM,98.1,64.0,33,29.97,10.0,Calm,Calm,-,N/A,,Partly Cloudy,0,2013-08-10 19:53:00
3:53 PM,100.0,64.9,32,29.94,10.0,Calm,Calm,-,N/A,,Clear,0,2013-08-10 20:53:00
4:53 PM,100.9,62.1,28,29.93,10.0,WSW,9.2,-,N/A,,Partly Cloudy,250,2013-08-10 21:53:00
5:53 PM,102.9,59.0,23,29.93,10.0,NNE,8.1,-,N/A,,Mostly Cloudy,20,2013-08-10 22:53:00
6:53 PM,96.1,66.9,38,29.94,10.0,ESE,3.5,-,N/A,,Clear,120,2013-08-10 23:53:00
7:53 PM,87.1,66.9,51,29.99,10.0,ESE,16.1,-,N/A,,Clear,120,2013-08-11 00:53:00
8:53 PM,84.0,66.9,56,29.99,10.0,South,8.1,-,N/A,,Clear,170,2013-08-11 01:53:00
9:53 PM,82.0,69.1,65,30.02,10.0,South,9.2,-,N/A,,Clear,180,2013-08-11 02:53:00
10:53 PM,80.1,70.0,71,30.03,10.0,SSE,5.8,-,N/A,,Clear,160,2013-08-11 03:53:00
11:53 PM,80.1,70.0,71,30.02,10.0,South,6.9,-,N/A,,Clear,190,2013-08-11 04:53:00